Regional Weather Roundup
Issued by NWS

Home | Current Version | Previous Version | Graphics & Text | Print | Product List | Glossary Off
Versions: 1 2 3 4 5 6 7 8 9 10 11 12 13 14 15 16 17 18 19 20 21 22 23 24 25 26 27 28 29 30 31 32 33 34 35 36 37 38 39 40 41 42 43 44 45 46 47 48 49 50

000
ASUS43 KTOP 241808
RWRKS

WEATHER ROUNDUP FOR KANSAS
NATIONAL WEATHER SERVICE GOODLAND KS
100 PM CDT SAT JUN 24 2017

NOTE:  "FAIR" INDICATES FEW OR NO CLOUDS BELOW 12,000 FEET WITH NO
SIGNIFICANT WEATHER AND/OR OBSTRUCTIONS TO VISIBILITY.

KSZ001>006-013>018-027>032-041>047-241900-
NORTHWEST KANSAS

CITY           SKY/WX    TMP DP  RH WIND       PRES   REMARKS
GOODLAND       CLOUDY    67  52  58 SE14      30.30F
6HR MIN TEMP:  54; 6HR MAX TEMP:  68;

HAYS           PTSUNNY   75  51  43 E8        30.28F
HILL CITY      CLOUDY    74  47  38 VRB7      30.30F
6HR MIN TEMP:  53; 6HR MAX TEMP:  74;

RUSSELL        SUNNY     76  44  32 VRB7      30.27S
6HR MIN TEMP:  54; 6HR MAX TEMP:  78;

$$

KSZ061>065-074>080-084>089-241900-
SOUTHWEST KANSAS

CITY           SKY/WX    TMP DP  RH WIND       PRES   REMARKS
DODGE CITY     PTSUNNY   77  52  41 S15       30.28S
6HR MIN TEMP:  62; 6HR MAX TEMP:  77;

ELKHART          N/A     71  42  35 SE15        N/A
GARDEN CITY    CLOUDY    73  50  44 S14G21    30.29S
6HR MIN TEMP:  60; 6HR MAX TEMP:  73;

GREAT BEND     PTSUNNY   78  49  35 S9        30.27F
PRATT          MOSUNNY   76  48  37 SE13      30.27F
6HR MIN TEMP:  60; 6HR MAX TEMP:  76;

$$

KSZ066>073-081>083-090>101-241900-
SOUTHEAST KANSAS

CITY           SKY/WX    TMP DP  RH WIND       PRES   REMARKS
CHANUTE        SUNNY     80  45  28 N9        30.24S
6HR MIN TEMP:  58; 6HR MAX TEMP:  80;

COFFEYVILLE    SUNNY     79  51  37 N9        30.23S
6HR MIN TEMP:  63; 6HR MAX TEMP:  81;

HUTCHINSON     SUNNY     82  46  28 VRB5      30.25F
6HR MIN TEMP:  57; 6HR MAX TEMP:  82;

MEDICINE LODGE   N/A     78  52  40 S12       30.25F
NEWTON         SUNNY     78  47  33 VRB5      30.27F
PARSONS        SUNNY     80  51  36 VRB3      30.24F
6HR MIN TEMP:  64; 6HR MAX TEMP:  81;

WICHITA INTL   PTSUNNY   77  52  41 E6        30.25F
6HR MIN TEMP:  64; 6HR MAX TEMP:  78;

WICHITA JABRA  SUNNY     77  50  38 NE7       30.26F
6HR MIN TEMP:  60; 6HR MAX TEMP:  78;

WICHITA MCCONL MOSUNNY   76  55  47 S6        30.26F
WINFIELD       SUNNY     79  53  40 NE6       30.26F
6HR MIN TEMP:  67; 6HR MAX TEMP:  80;

$$

KSZ007>012-019>026-033>040-048>060-102>105-241900-
NORTHEAST KANSAS

CITY           SKY/WX    TMP DP  RH WIND       PRES   REMARKS
CONCORDIA      SUNNY     76  38  25 SW9       30.27S
6HR MIN TEMP:  56; 6HR MAX TEMP:  76;

EMPORIA        SUNNY     76  44  32 NE5       30.26S
6HR MIN TEMP:  57; 6HR MAX TEMP:  76;

LAWRENCE       SUNNY     76  43  30 VRB5      30.24F
6HR MIN TEMP:  57; 6HR MAX TEMP:  77;

MANHATTAN      SUNNY     79  41  25 W6        30.25S
6HR MIN TEMP:  54; 6HR MAX TEMP:  79;

MARYSVILLE     SUNNY     77  37  24 NW6       30.25S
OLATHE IND     SUNNY     75  42  30 VRB7      30.25F
6HR MIN TEMP:  60; 6HR MAX TEMP:  76;

OLATHE EXE     SUNNY     76  41  28 N12       30.24F
6HR MIN TEMP:  61; 6HR MAX TEMP:  76;

SALINA         SUNNY     80  43  26 VRB3      30.26F
6HR MIN TEMP:  58; 6HR MAX TEMP:  81;

TOPEKA BILLARD SUNNY     77  46  33 N5        30.24F
6HR MIN TEMP:  58; 6HR MAX TEMP:  78;

TOPEKA FORBES  SUNNY     78  43  28 NE7       30.25F
6HR MIN TEMP:  59; 6HR MAX TEMP:  78;

$$



USA.gov is the U.S. government's official web portal to all federal, state and local government web resources and services.